TimeCEST,TemperatureF,Dew PointF,Humidity,Sea Level PressureIn,VisibilityMPH,Wind Direction,Wind SpeedMPH,Gust SpeedMPH,PrecipitationIn,Events,Conditions,WindDirDegrees,DateUTC
12:45 AM,50.0,39.2,66,30.01,-9999.0,NNW,5.8,-,N/A,,Clear,330,2013-05-13 22:45:00
1:45 AM,48.2,39.2,71,30.01,-9999.0,NW,5.8,-,N/A,,Clear,310,2013-05-13 23:45:00
2:00 AM,49,39,59,30.01,44,NW,4.5,,,,Partly Cloudy,310,2013-05-14 00:00:00
2:45 AM,48.2,39.2,71,30.01,-9999.0,NNW,6.9,-,N/A,,Clear,330,2013-05-14 00:45:00
3:45 AM,48.2,39.2,71,29.98,-9999.0,NW,5.8,-,N/A,,Clear,310,2013-05-14 01:45:00
4:45 AM,46.4,39.2,76,30.01,-9999.0,WNW,6.9,-,N/A,,Clear,300,2013-05-14 02:45:00
5:45 AM,44.6,39.2,81,30.01,-9999.0,WSW,5.8,-,N/A,,Clear,250,2013-05-14 03:45:00
6:15 AM,44.6,41.0,87,30.01,-9999.0,West,5.8,-,N/A,,Clear,270,2013-05-14 04:15:00
6:45 AM,48.2,42.8,82,30.01,6.2,WNW,5.8,-,N/A,,Partly Cloudy,300,2013-05-14 04:45:00
7:00 AM,-9999,-9999,N/A,-9999,6.2,WNW,9.2,-,N/A,,Mostly Cloudy,300,2013-05-14 05:00:00
7:15 AM,50.0,42.8,76,30.01,6.2,WNW,5.8,-,N/A,,Scattered Clouds,300,2013-05-14 05:15:00
7:45 AM,50.0,42.8,76,30.01,6.2,WSW,9.2,-,N/A,,Mostly Cloudy,240,2013-05-14 05:45:00
8:00 AM,50,43,70,30.02,47,WSW,8.9,,,,Scattered Clouds,240,2013-05-14 06:00:00
8:15 AM,51.8,42.8,71,30.01,6.2,West,6.9,-,N/A,,Mostly Cloudy,280,2013-05-14 06:15:00
8:45 AM,53.6,44.6,72,30.01,6.2,West,9.2,-,N/A,,Scattered Clouds,280,2013-05-14 06:45:00
9:15 AM,55.4,44.6,67,30.01,6.2,WNW,8.1,-,N/A,,Partly Cloudy,290,2013-05-14 07:15:00
9:45 AM,55.4,44.6,67,30.01,6.2,West,10.4,-,N/A,,Partly Cloudy,280,2013-05-14 07:45:00
10:00 AM,-9999,-9999,N/A,-9999,6.2,WNW,9.2,-,N/A,,Scattered Clouds,300,2013-05-14 08:00:00
10:15 AM,57.2,46.4,67,30.01,6.2,WNW,10.4,-,N/A,,Partly Cloudy,300,2013-05-14 08:15:00
10:45 AM,59.0,46.4,63,30.01,6.2,WNW,11.5,-,N/A,,Mostly Cloudy,290,2013-05-14 08:45:00
11:15 AM,57.2,46.4,67,30.01,6.2,WNW,9.2,-,N/A,,Mostly Cloudy,290,2013-05-14 09:15:00
11:45 AM,59.0,46.4,63,30.01,6.2,WNW,8.1,-,N/A,,Mostly Cloudy,290,2013-05-14 09:45:00
12:15 PM,59.0,46.4,63,30.01,6.2,NW,8.1,-,N/A,,Mostly Cloudy,310,2013-05-14 10:15:00
12:45 PM,60.8,46.4,59,29.98,6.2,NW,8.1,-,N/A,,Mostly Cloudy,310,2013-05-14 10:45:00
1:00 PM,-9999,-9999,N/A,-9999,6.2,WNW,9.2,-,N/A,,Mostly Cloudy,300,2013-05-14 11:00:00
1:15 PM,60.8,42.8,52,29.98,6.2,NW,11.5,-,N/A,,Mostly Cloudy,320,2013-05-14 11:15:00
1:45 PM,64.4,46.4,52,29.98,6.2,NW,9.2,-,N/A,,Mostly Cloudy,310,2013-05-14 11:45:00
2:00 PM,64,47,43,29.96,47,NW,8.9,,,,Partly Cloudy,310,2013-05-14 12:00:00
2:15 PM,64.4,44.6,49,29.98,6.2,NNW,8.1,-,N/A,,Scattered Clouds,330,2013-05-14 12:15:00
2:45 PM,64.4,44.6,49,29.95,6.2,WNW,10.4,-,N/A,,Scattered Clouds,300,2013-05-14 12:45:00
3:15 PM,64.4,44.6,49,29.95,6.2,NW,6.9,-,N/A,,Scattered Clouds,320,2013-05-14 13:15:00
3:45 PM,64.4,46.4,52,29.95,6.2,NNW,8.1,-,N/A,,Partly Cloudy,340,2013-05-14 13:45:00
4:00 PM,-9999,-9999,N/A,-9999,6.2,WNW,9.2,-,N/A,,Scattered Clouds,300,2013-05-14 14:00:00
4:15 PM,66.2,44.6,46,29.95,-9999.0,NNW,9.2,-,N/A,,Clear,330,2013-05-14 14:15:00
4:45 PM,66.2,44.6,46,29.95,-9999.0,NNW,10.4,-,N/A,,Clear,340,2013-05-14 14:45:00
5:15 PM,64.4,44.6,49,29.92,-9999.0,North,9.2,-,N/A,,Clear,10,2013-05-14 15:15:00
5:45 PM,66.2,42.8,43,29.92,-9999.0,NNW,8.1,-,N/A,,Clear,340,2013-05-14 15:45:00
6:15 PM,64.4,48.2,56,29.92,-9999.0,NNE,8.1,-,N/A,,Clear,20,2013-05-14 16:15:00
6:45 PM,62.6,46.4,55,29.92,-9999.0,NNE,6.9,-,N/A,,Clear,30,2013-05-14 16:45:00
7:15 PM,62.6,48.2,59,29.92,-9999.0,NNE,4.6,-,N/A,,Clear,20,2013-05-14 17:15:00
7:45 PM,60.8,48.2,63,29.92,-9999.0,NNE,4.6,-,N/A,,Clear,30,2013-05-14 17:45:00
8:00 PM,60,48,56,29.91,47,NNE,4.5,,,,Partly Cloudy,30,2013-05-14 18:00:00
8:15 PM,59.0,44.6,59,29.92,-9999.0,North,3.5,-,N/A,,Clear,10,2013-05-14 18:15:00
8:45 PM,59.0,44.6,59,29.92,-9999.0,NNW,4.6,-,N/A,,Clear,330,2013-05-14 18:45:00
9:15 PM,59.0,44.6,59,29.92,-9999.0,North,4.6,-,N/A,,Clear,350,2013-05-14 19:15:00
9:45 PM,57.2,44.6,63,29.92,-9999.0,North,2.3,-,N/A,,Clear,350,2013-05-14 19:45:00
10:45 PM,53.6,44.6,72,29.92,-9999.0,Calm,Calm,-,N/A,,Clear,0,2013-05-14 20:45:00
11:45 PM,50.0,44.6,82,29.92,-9999.0,ENE,6.9,-,N/A,,Clear,70,2013-05-14 21:45:00